K3BAY-1 Weather Reports


time (UTC)temp
C
wind
direction
speed
KPH
gust
KPH
rain 1hr
cm
rain 24hr
cm
rain mn
cm
humidity
%
barometer
mb
20260507081625 12 133 4.8 11.3 0.00 0.10 0.10 87 1006.0
20260507081121 12 123 4.8 11.3 0.13 0.10 0.10 88 1006.0
20260507080618 13 126 8.0 11.3 0.13 0.10 0.10 87 1006.0
20260507080114 13 160 6.4 11.3 0.00 0.08 0.08 85 1006.0
20260507075609 13 123 8.0 12.9 0.00 0.08 0.08 84 1006.0
20260507075105 13 122 6.4 9.7 0.00 0.08 0.08 85 1006.0
20260507074603 13 131 8.0 11.3 0.00 0.08 0.08 84 1006.4
20260507074101 13 124 12.9 14.5 0.00 0.08 0.08 85 1006.4
20260507073556 13 132 8.0 11.3 0.00 0.08 0.08 89 1006.4
20260507073053 13 149 6.4 12.9 0.00 0.08 0.08 88 1006.0
20260507072551 13 132 4.8 14.5 0.00 0.08 0.08 88 1006.4
20260507072048 13 128 3.2 20.9 0.00 0.08 0.08 87 1006.4
20260507071545 14 139 9.7 14.5 0.00 0.08 0.08 87 1006.4
20260507071042 14 123 6.4 17.7 0.00 0.08 0.08 86 1006.4
20260507070539 14 136 4.8 9.7 0.00 0.08 0.08 85 1006.4
20260507070036 14 171 6.4 9.7 0.00 0.08 0.08 86 1006.4
20260507065532 14 123 4.8 9.7 0.00 0.08 0.08 85 1006.7
20260507065029 14 130 6.4 9.7 0.00 0.08 0.08 87 1006.7
20260507064527 14 134 4.8 9.7 0.00 0.08 0.08 87 1006.7
20260507064026 14 117 6.4 11.3 0.00 0.08 0.08 87 1006.7
20260507063522 14 120 6.4 9.7 0.00 0.08 0.08 87 1006.7
20260507063020 13 109 8.0 9.7 0.00 0.08 0.08 89 1007.0
20260507062516 13 130 8.0 11.3 0.00 0.08 0.08 89 1007.0
20260507062014 13 112 6.4 9.7 0.18 0.08 0.08 89 1007.0
20260507061511 14 107 6.4 9.7 0.18 0.08 0.08 88 1007.0
20260507061009 14 114 4.8 11.3 0.00 0.05 0.05 87 1007.0
20260507060507 14 130 6.4 9.7 0.00 0.05 0.05 88 1007.0
20260507060003 14 133 6.4 9.7 0.00 0.05 0.05 88 1007.0
20260507055458 13 139 8.0 11.3 0.00 0.05 0.05 87 1007.4
20260507054955 13 128 8.0 11.3 0.00 0.05 0.05 89 1007.4
20260507054451 13 146 8.0 11.3 0.13 0.05 0.05 93 1007.4
20260507053948 14 134 6.4 11.3 0.30 0.05 0.05 93 1007.4
20260507053446 15 153 6.4 11.3 0.18 0.03 0.03 94 1007.4
20260507052944 15 119 6.4 9.7 0.00 0.00 0.00 93 1007.4
20260507052442 15 77 4.8 11.3 0.00 0.00 0.00 91 1007.4
20260507051938 16 133 6.4 11.3 0.00 0.00 0.00 88 1007.7
20260507051436 16 133 9.7 12.9 0.00 0.00 0.00 84 1007.7
20260507050933 16 132 4.8 4.8 0.00 0.00 0.00 83 1007.7
20260507050429 16 88 3.2 4.8 0.00 0.00 0.00 82 1007.4
20260507045926 16 100 1.6 4.8 0.00 0.00 0.00 81 1007.7
20260507045422 16 74 1.6 3.2 0.00 0.00 0.00 81 1007.4
20260507044920 16 87 3.2 9.7 0.00 0.00 0.00 83 1007.7
20260507044416 16 113 8.0 11.3 0.00 0.00 0.00 83 1007.7
20260507043912 16 126 9.7 16.1 0.00 0.00 0.00 81 1007.7
20260507043409 17 109 6.4 9.7 0.00 0.00 0.00 83 1007.7
20260507042905 17 107 6.4 12.9 0.00 0.00 0.00 85 1007.4
20260507042402 17 137 6.4 11.3 0.00 0.00 0.00 85 1007.7
20260507041858 17 128 8.0 11.3 0.00 0.00 0.00 86 1007.4
20260507041355 17 138 3.2 6.4 0.00 0.00 0.00 85 1007.7
20260507040852 17 139 4.8 6.4 0.00 0.00 0.00 85 1007.7
20260507040348 17 136 3.2 4.8 0.00 0.00 0.00 84 1007.7
20260507035844 17 132 6.4 6.4 0.00 0.38 0.38 84 1007.7
20260507035340 17 135 4.8 4.8 0.00 0.38 0.38 83 1008.1
20260507034837 17 74 4.8 6.4 0.00 0.38 0.38 83 1007.7
20260507034334 17 83 3.2 4.8 0.00 0.38 0.38 83 1008.1
20260507033832 17 112 4.8 6.4 0.00 0.38 0.38 83 1008.1
20260507033330 17 85 0.0 3.2 0.00 0.38 0.38 82 1007.7
20260507032827 18 85 1.6 3.2 0.00 0.38 0.38 82 1007.7
20260507032323 18 95 1.6 3.2 0.00 0.38 0.38 83 1007.7
20260507031819 18 115 3.2 4.8 0.00 0.38 0.38 84 1007.7
20260507031316 18 96 0.0 3.2 0.00 0.38 0.38 83 1007.7
20260507030812 18 98 3.2 4.8 0.00 0.38 0.38 83 1007.7
20260507030311 18 77 1.6 4.8 0.00 0.38 0.38 82 1008.1
20260507025807 18 119 3.2 6.4 0.00 0.38 0.38 82 1008.1
20260507025306 18 98 3.2 6.4 0.00 0.38 0.38 81 1008.1
20260507024802 18 83 3.2 4.8 0.00 0.38 0.38 82 1008.1
20260507024259 18 141 4.8 6.4 0.00 0.38 0.38 84 1007.7
20260507023755 18 129 3.2 12.9 0.00 0.38 0.38 83 1008.1
20260507023252 19 81 0.0 1.6 0.00 0.38 0.38 86 1008.1
20260507022749 19 85 0.0 0.0 0.00 0.38 0.38 87 1008.1
20260507022245 19 86 0.0 0.0 0.00 0.38 0.38 87 1007.7
20260507021742 19 83 0.0 0.0 0.00 0.38 0.38 87 1007.7
20260507021237 19 87 0.0 0.0 0.00 0.38 0.38 87 1008.1
20260507020736 19 81 0.0 0.0 0.00 0.38 0.38 86 1008.4
20260507020232 19 82 0.0 0.0 0.00 0.38 0.38 86 1008.1
20260507015729 19 81 0.0 0.0 0.00 0.38 0.38 85 1008.4
20260507015227 19 84 0.0 1.6 0.00 0.38 0.38 85 1008.1
20260507014723 19 76 0.0 0.0 0.00 0.38 0.38 86 1008.4
20260507014220 19 79 0.0 0.0 0.00 0.38 0.38 86 1008.1
20260507013716 19 81 0.0 0.0 0.00 0.38 0.38 86 1008.1
20260507013214 19 84 0.0 0.0 0.00 0.38 0.38 85 1008.4
20260507012711 19 81 0.0 0.0 0.00 0.38 0.38 86 1008.1
20260507012206 19 81 0.0 0.0 0.00 0.38 0.38 86 1008.1
20260507011704 19 77 0.0 0.0 0.00 0.38 0.38 86 1008.1
20260507011201 19 75 0.0 0.0 0.00 0.38 0.38 85 1008.1
20260507010700 19 82 0.0 0.0 0.00 0.38 0.38 86 1008.1
20260507010156 19 82 0.0 0.0 0.00 0.38 0.38 86 1008.1
20260507005654 20 70 0.0 0.0 0.00 0.38 0.38 85 1008.1
20260507005149 20 82 0.0 0.0 0.00 0.38 0.38 85 1008.1
20260507004646 20 82 0.0 0.0 0.00 0.38 0.38 85 1008.1
20260507004144 20 82 0.0 0.0 0.00 0.38 0.38 84 1008.1
20260507003640 20 74 0.0 0.0 0.00 0.38 0.38 84 1008.1
20260507003140 20 63 0.0 0.0 0.00 0.38 0.38 84 1008.1
20260507002637 20 81 0.0 0.0 0.00 0.38 0.38 84 1007.7
20260507002133 20 78 0.0 0.0 0.00 0.38 0.38 84 1008.1
20260507001630 20 73 1.6 1.6 0.00 0.38 0.38 84 1008.1
20260507001127 20 82 0.0 1.6 0.00 0.38 0.38 84 1008.1
20260507000624 20 84 0.0 1.6 0.00 0.38 0.38 84 1008.1
20260507000119 20 70 0.0 0.0 0.00 0.38 0.38 84 1008.1
20260506235617 20 38 0.0 0.0 0.00 0.38 0.38 84 1008.4
20260506235116 20 84 0.0 0.0 0.00 0.38 0.38 83 1008.1
20260506234614 20 78 0.0 0.0 0.00 0.38 0.38 83 1008.1
20260506234111 20 77 0.0 0.0 0.00 0.38 0.38 83 1008.1
20260506233608 20 82 0.0 0.0 0.00 0.38 0.38 83 1008.1
20260506233105 20 79 0.0 0.0 0.00 0.38 0.38 82 1008.1
20260506232601 20 85 0.0 0.0 0.00 0.38 0.38 82 1008.4
20260506232101 20 84 0.0 0.0 0.00 0.38 0.38 82 1008.4
20260506231559 21 85 0.0 0.0 0.00 0.38 0.38 82 1008.1
20260506231057 21 87 0.0 0.0 0.00 0.38 0.38 81 1008.1
20260506230553 21 85 3.2 4.8 0.00 0.38 0.38 81 1008.1
20260506230051 21 76 0.0 1.6 0.00 0.38 0.38 80 1008.1
20260506225548 21 43 0.0 0.0 0.00 0.38 0.38 80 1008.1
20260506225044 21 91 0.0 0.0 0.00 0.38 0.38 80 1008.1
20260506224541 21 77 0.0 0.0 0.00 0.38 0.38 80 1008.1
20260506224037 21 81 0.0 0.0 0.00 0.38 0.38 79 1008.1
20260506223533 21 85 0.0 0.0 0.00 0.38 0.38 79 1008.1
20260506223030 21 324 1.6 3.2 0.00 0.38 0.38 79 1007.7
20260506222527 21 89 0.0 0.0 0.00 0.38 0.38 79 1008.1
20260506222023 21 33 1.6 3.2 0.00 0.38 0.38 78 1008.1
20260506221521 21 151 0.0 3.2 0.00 0.38 0.38 79 1008.1
20260506221019 21 88 0.0 0.0 0.00 0.38 0.38 79 1008.1
20260506220514 21 81 0.0 1.6 0.00 0.38 0.38 79 1008.1
20260506220010 21 35 0.0 0.0 0.00 0.38 0.38 78 1008.1
20260506215507 21 81 0.0 0.0 0.00 0.38 0.38 78 1008.1
20260506215003 22 66 1.6 3.2 0.00 0.38 0.38 78 1008.1
20260506214500 22 6 0.0 1.6 0.00 0.38 0.38 78 1008.1
20260506213957 22 68 1.6 3.2 0.00 0.38 0.38 77 1007.7
20260506213455 21 35 0.0 1.6 0.00 0.38 0.38 78 1008.1
20260506212952 21 84 1.6 3.2 0.00 0.38 0.38 78 1008.1
20260506212448 22 71 0.0 3.2 0.00 0.38 0.38 77 1007.7
20260506211943 22 58 1.6 3.2 0.00 0.38 0.38 77 1008.1
20260506211439 21 118 0.0 3.2 0.00 0.38 0.38 77 1008.1
20260506210937 21 46 0.0 4.8 0.00 0.38 0.38 78 1007.7
20260506210433 21 79 0.0 1.6 0.00 0.38 0.38 77 1008.1
20260506205931 21 86 0.0 3.2 0.00 0.38 0.38 77 1008.1
20260506205427 21 71 0.0 1.6 0.00 0.38 0.38 77 1007.7
20260506204923 21 79 1.6 3.2 0.00 0.38 0.38 77 1008.1
20260506204421 21 42 1.6 3.2 0.00 0.38 0.38 77 1008.1
20260506203918 22 82 0.0 0.0 0.00 0.38 0.38 77 1007.7
20260506203415 21 72 0.0 0.0 0.00 0.38 0.38 77 1007.7
20260506202912 21 358 3.2 3.2 0.00 0.38 0.38 76 1008.1
20260506202409 22 76 0.0 3.2 0.00 0.38 0.38 77 1008.1
20260506201906 21 49 1.6 3.2 0.00 0.38 0.38 76 1007.7
20260506201403 23 295 3.2 9.7 0.00 0.38 0.38 74 1008.1
20260506200859 22 65 1.6 4.8 0.00 0.38 0.38 73 1008.1
20260506200356 22 357 3.2 6.4 0.00 0.38 0.38 74 1008.1
20260506195852 22 44 0.0 1.6 0.00 0.38 0.38 73 1008.1
20260506195350 22 323 1.6 3.2 0.00 0.38 0.38 74 1008.1
20260506194846 22 357 0.0 3.2 0.00 0.38 0.38 75 1008.1
20260506194343 22 331 3.2 6.4 0.00 0.38 0.38 74 1008.1
20260506193841 22 320 4.8 6.4 0.00 0.38 0.38 74 1008.1
20260506193337 23 0 1.6 3.2 0.00 0.38 0.38 72 1008.1
20260506192833 23 105 0.0 3.2 0.00 0.38 0.38 72 1008.1
20260506192330 22 83 1.6 1.6 0.00 0.38 0.38 74 1008.1
20260506191827 22 80 3.2 4.8 0.00 0.38 0.38 74 1008.1
20260506191324 22 87 0.0 1.6 0.00 0.38 0.38 76 1008.1
20260506190821 22 31 1.6 3.2 0.00 0.38 0.38 75 1008.1
20260506190317 21 86 0.0 3.2 0.00 0.38 0.38 77 1008.1
20260506185814 21 6 1.6 3.2 0.00 0.38 0.38 77 1008.1
20260506185311 21 5 3.2 3.2 0.00 0.38 0.38 78 1008.1
20260506184808 21 167 0.0 1.6 0.00 0.38 0.38 78 1008.1
20260506184305 20 348 4.8 12.9 0.00 0.38 0.38 79 1008.1
20260506183802 21 53 3.2 4.8 0.00 0.38 0.38 79 1008.1
20260506183257 20 51 3.2 6.4 0.00 0.38 0.38 79 1008.1
20260506182755 20 105 1.6 3.2 0.00 0.38 0.38 79 1008.1
20260506182252 20 3 1.6 6.4 0.00 0.38 0.38 79 1008.1
20260506181750 20 24 1.6 3.2 0.00 0.38 0.38 80 1008.1
20260506181247 20 126 1.6 3.2 0.00 0.38 0.38 79 1008.1
20260506180744 20 61 1.6 3.2 0.00 0.38 0.38 81 1008.1
20260506180240 20 345 1.6 3.2 0.00 0.38 0.38 80 1008.1
20260506175736 20 40 3.2 14.5 0.00 0.38 0.38 81 1008.1
20260506175233 20 312 1.6 6.4 0.00 0.38 0.38 81 1008.1
20260506174731 19 52 1.6 4.8 0.00 0.38 0.38 83 1008.1
20260506174227 20 312 3.2 6.4 0.00 0.38 0.38 83 1008.1
20260506173726 20 69 1.6 4.8 0.00 0.38 0.38 83 1008.1
20260506173222 20 337 1.6 4.8 0.00 0.38 0.38 84 1008.1
20260506172719 19 11 1.6 9.7 0.00 0.38 0.38 85 1008.1
20260506172215 19 90 1.6 4.8 0.13 0.38 0.38 86 1008.1
20260506171713 19 312 1.6 12.9 0.13 0.38 0.38 85 1008.1
20260506171210 19 4 3.2 6.4 0.00 0.36 0.36 86 1008.1
20260506170708 18 93 1.6 11.3 0.00 0.36 0.36 87 1008.1
20260506170204 18 358 1.6 3.2 0.00 0.36 0.36 88 1008.1
20260506165703 18 14 8.0 17.7 0.00 0.36 0.36 89 1008.1
20260506165159 18 77 1.6 6.4 0.00 0.36 0.36 90 1008.1
20260506164656 18 326 1.6 3.2 0.00 0.36 0.36 91 1008.1
20260506164154 17 82 1.6 4.8 0.00 0.36 0.36 92 1008.1
20260506163650 17 40 1.6 6.4 0.00 0.36 0.36 93 1008.1
20260506163145 17 89 1.6 3.2 0.00 0.36 0.36 94 1008.1
20260506162641 17 28 0.0 3.2 0.00 0.36 0.36 95 1008.1
20260506162139 17 38 1.6 6.4 0.00 0.36 0.36 95 1008.1
20260506161636 17 68 1.6 4.8 0.00 0.36 0.36 96 1008.1
20260506161133 16 297 3.2 6.4 0.00 0.36 0.36 96 1008.1
20260506160631 16 293 1.6 4.8 0.00 0.36 0.36 96 1008.1
20260506160127 16 80 0.0 3.2 0.00 0.36 0.36 97 1008.1
20260506155626 16 300 4.8 9.7 0.00 0.36 0.36 96 1008.4
20260506155122 16 314 0.0 3.2 0.00 0.36 0.36 97 1008.1
20260506153225 16 71 0.0 9.7 0.00 0.36 0.36 97 1008.4
20260506152721 16 320 3.2 3.2 0.00 0.36 0.36 96 1008.1
20260506152219 16 45 1.6 3.2 0.00 0.36 0.36 96 1008.1
20260506151718 16 310 0.0 3.2 0.00 0.36 0.36 96 1008.4
20260506151214 16 338 1.6 3.2 0.36 0.36 0.36 96 1008.4
20260506150710 16 78 0.0 6.4 0.30 0.33 0.33 95 1008.1
20260506150208 16 54 3.2 4.8 0.43 0.30 0.30 95 1008.4
20260506145704 16 325 3.2 4.8 0.79 0.28 0.28 95 1008.4
20260506145201 16 314 3.2 4.8 0.61 0.23 0.23 94 1008.4
20260506144659 16 35 0.0 3.2 0.30 0.15 0.15 94 1008.4
20260506144155 16 82 1.6 4.8 0.18 0.13 0.13 93 1008.4
20260506143653 16 42 1.6 3.2 0.00 0.10 0.10 93 1008.4
20260506143151 16 336 1.6 3.2 0.13 0.10 0.10 92 1008.4
20260506142649 16 35 1.6 3.2 0.13 0.10 0.10 92 1008.4
20260506142146 16 52 1.6 3.2 0.30 0.08 0.08 91 1008.4
20260506141644 16 13 1.6 3.2 0.30 0.08 0.08 90 1008.4
20260506141142 17 357 1.6 3.2 0.00 0.03 0.03 88 1008.4
20260506140639 17 36 1.6 3.2 0.18 0.03 0.03 87 1008.1
20260506140137 17 40 1.6 3.2 0.18 0.03 0.03 86 1008.1
20260506135633 17 80 0.0 4.8 0.00 0.00 0.00 85 1008.4
20260506135130 18 111 0.0 3.2 0.00 0.00 0.00 83 1008.4
20260506134626 18 30 0.0 1.6 0.00 0.00 0.00 82 1008.4
20260506134122 18 76 0.0 4.8 0.00 0.00 0.00 81 1008.4
20260506133620 18 69 1.6 3.2 0.00 0.00 0.00 81 1008.4
20260506133116 18 354 1.6 6.4 0.00 0.00 0.00 80 1008.1
20260506132614 18 10 3.2 3.2 0.00 0.00 0.00 80 1008.1
20260506132110 18 65 0.0 3.2 0.00 0.00 0.00 80 1008.1
20260506131608 18 345 1.6 3.2 0.00 0.00 0.00 79 1008.1
20260506131104 18 84 0.0 6.4 0.00 0.00 0.00 78 1007.7
20260506130601 18 322 3.2 6.4 0.00 0.00 0.00 77 1008.1
20260506130059 18 342 1.6 3.2 0.00 0.00 0.00 77 1008.1
20260506125557 18 69 0.0 1.6 0.00 0.00 0.00 78 1008.1
20260506125054 18 6 0.0 3.2 0.00 0.00 0.00 78 1008.1
20260506124552 18 43 1.6 3.2 0.00 0.00 0.00 78 1008.1
20260506124049 18 71 3.2 3.2 0.00 0.00 0.00 78 1008.1
20260506123547 18 70 0.0 1.6 0.00 0.00 0.00 79 1008.1
20260506123045 18 51 0.0 3.2 0.00 0.00 0.00 78 1008.1
20260506122541 18 82 1.6 3.2 0.00 0.00 0.00 78 1008.1
20260506122040 18 81 1.6 14.5 0.00 0.00 0.00 78 1008.1
20260506121537 18 112 1.6 3.2 0.00 0.00 0.00 78 1008.1
20260506121033 18 359 0.0 3.2 0.00 0.00 0.00 77 1007.7
20260506120531 18 55 1.6 3.2 0.00 0.00 0.00 76 1008.1
20260506120028 18 321 1.6 6.4 0.00 0.00 0.00 77 1008.1
20260506115526 18 329 1.6 3.2 0.00 0.00 0.00 77 1008.1
20260506115025 18 12 1.6 3.2 0.00 0.00 0.00 76 1007.7
20260506114521 19 67 0.0 4.8 0.00 0.00 0.00 77 1008.1
20260506114020 19 4 3.2 3.2 0.00 0.00 0.00 76 1007.7
20260506113517 18 80 1.6 3.2 0.00 0.00 0.00 77 1007.7
20260506113015 18 62 1.6 14.5 0.00 0.00 0.00 77 1008.1
20260506112511 18 9 1.6 3.2 0.00 0.00 0.00 77 1007.7
20260506112008 18 66 1.6 4.8 0.00 0.00 0.00 77 1008.1
20260506111507 18 71 0.0 4.8 0.00 0.00 0.00 77 1007.7
20260506111003 18 299 0.0 3.2 0.00 0.00 0.00 78 1007.7
20260506110501 18 346 1.6 11.3 0.00 0.00 0.00 78 1007.7
20260506105957 18 32 1.6 3.2 0.00 0.00 0.00 78 1007.7
20260506105454 18 359 1.6 6.4 0.00 0.00 0.00 78 1008.1
20260506104951 18 310 3.2 9.7 0.00 0.00 0.00 78 1008.1
20260506104449 18 109 1.6 16.1 0.00 0.00 0.00 78 1008.1
20260506103947 18 85 1.6 3.2 0.00 0.00 0.00 78 1008.1
20260506103444 18 75 0.0 1.6 0.00 0.00 0.00 78 1008.1
20260506102940 18 314 1.6 4.8 0.00 0.00 0.00 78 1008.1
20260506102439 18 4 1.6 3.2 0.00 0.00 0.00 78 1008.1
20260506101936 18 21 1.6 3.2 0.00 0.00 0.00 78 1008.1
20260506101432 18 53 1.6 3.2 0.00 0.00 0.00 78 1008.1
20260506100930 18 62 1.6 3.2 0.00 0.00 0.00 78 1008.1
20260506100428 18 354 1.6 4.8 0.00 0.00 0.00 77 1008.1
20260506095926 18 27 1.6 4.8 0.00 0.00 0.00 77 1008.1
20260506095424 18 10 0.0 3.2 0.00 0.00 0.00 77 1008.1
20260506094919 18 148 0.0 3.2 0.00 0.00 0.00 77 1008.1
20260506094418 18 94 1.6 3.2 0.00 0.00 0.00 77 1008.7
20260506093916 18 58 1.6 3.2 0.00 0.00 0.00 77 1008.1
20260506093413 18 83 1.6 3.2 0.00 0.00 0.00 77 1008.4
20260506092911 18 129 1.6 9.7 0.00 0.00 0.00 77 1008.4
20260506092409 18 113 1.6 3.2 0.00 0.00 0.00 77 1008.4
20260506091905 18 109 1.6 3.2 0.00 0.00 0.00 76 1008.4
20260506091403 18 3 0.0 6.4 0.00 0.00 0.00 76 1008.4
20260506090900 18 338 1.6 11.3 0.00 0.00 0.00 76 1008.4
20260506090358 18 61 3.2 11.3 0.00 0.00 0.00 75 1008.4
20260506085854 19 322 3.2 3.2 0.00 0.00 0.00 75 1008.4
20260506085351 19 87 1.6 3.2 0.00 0.00 0.00 75 1008.4
20260506084847 19 312 1.6 3.2 0.00 0.00 0.00 74 1008.4
20260506084344 19 90 0.0 12.9 0.00 0.00 0.00 74 1008.4
20260506083840 19 12 3.2 3.2 0.00 0.00 0.00 74 1008.4
20260506083338 19 325 1.6 16.1 0.00 0.00 0.00 74 1008.7
20260506082836 19 354 3.2 4.8 0.00 0.00 0.00 74 1008.7
20260506082332 19 305 3.2 3.2 0.00 0.00 0.00 73 1008.7